Location: Duac?
(36.9744°N, 30.6500°E)
Time: 00:05:30
(UTC+00:00)

Cosmos 2221 - Pass Details

Date: 05 August 2024
Orbit: 579 x 600 km, 82.5° (Epoch: 18 September)

Event Time Altitude Azimuth Distance (km) Brightness Sun altitude
Rises 20:17:23 0° 349° (NNW) 2,856 7.0 -30.8°
Reaches altitude 10° 20:19:37 10° 346° (NNW) 1,951 5.9 -31.1°
Enters shadow 20:21:58 31° 335° (NNW) 1,067 4.2 -31.3°
